When you browse on this site, cookies collect data to enhance your experience and personalize the content and advertising you see.
Visit our Privacy Policy to learn more. By continuing to use the site, you agree to this use of cookies and data.
  • In Spain
  • List of Countries
  • For 7 days
  • Water Temperature
  • Satellite Maps
  • Weather Map
  • Weather Widgets
  • user-avatar
    Login

    Hourly Weather La-Plata

    Today, 12 December, Wednesday

    Time Temperature Precipitation Wind Pressure Humidity
    00:00 +20°C° 0 mm 2 mps 756 mmHg 91%
    01:00 +20°C° 0 mm 2 mps 757 mmHg 92%
    02:00 +20°C° 0 mm 3 mps 757 mmHg 93%
    03:00 +20°C° 0 mm 3 mps 757 mmHg 94%
    04:00 +20°C° 0 mm 3 mps 757 mmHg 94%
    05:00 +20°C° 0 mm 3 mps 757 mmHg 95%
    06:00 +22°C° 0 mm 3 mps 758 mmHg 81%
    07:00 +25°C° 0 mm 4 mps 758 mmHg 67%
    08:00 +27°C° 0 mm 2 mps 758 mmHg 55%
    09:00 +28°C° 0 mm 3 mps 759 mmHg 47%
    10:00 +30°C° 0 mm 3 mps 759 mmHg 39%
    11:00 +31°C° 0 mm 3 mps 759 mmHg 31%
    12:00 +31°C° 0 mm 3 mps 759 mmHg 30%
    13:00 +33°C° 0 mm 4 mps 759 mmHg 30%
    14:00 +33°C° 0 mm 5 mps 759 mmHg 30%
    15:00 +32°C° 0 mm 5 mps 759 mmHg 32%
    16:00 +30°C° 0 mm 6 mps 758 mmHg 34%
    17:00 +29°C° 0 mm 6 mps 758 mmHg 36%
    18:00 +27°C° 0 mm 6 mps 758 mmHg 40%
    19:00 +24°C° 0 mm 6 mps 759 mmHg 43%
    20:00 +21°C° 0 mm 6 mps 759 mmHg 47%
    21:00 +21°C° 0 mm 7 mps 759 mmHg 48%
    22:00 +21°C° 0 mm 7 mps 759 mmHg 49%
    23:00 +21°C° 0 mm 7 mps 760 mmHg 50%

    Tomorrow, 13 December, Thursday

    Time Temperature Precipitation Wind Pressure Humidity
    00:00 +20°C° 0 mm 7 mps 759 mmHg 50%
    01:00 +20°C° 0 mm 7 mps 759 mmHg 50%
    02:00 +20°C° 0 mm 6 mps 759 mmHg 50%
    03:00 +20°C° 0 mm 7 mps 759 mmHg 49%
    04:00 +20°C° 0 mm 7 mps 759 mmHg 48%
    05:00 +20°C° 0 mm 7 mps 759 mmHg 46%
    06:00 +21°C° 0.1 mm 7 mps 759 mmHg 45%
    07:00 +22°C° 0.1 mm 7 mps 759 mmHg 43%
    08:00 +24°C° 0.1 mm 8 mps 759 mmHg 41%
    09:00 +24°C° 0 mm 8 mps 758 mmHg 43%
    10:00 +24°C° 0 mm 8 mps 758 mmHg 45%
    11:00 +26°C° 0 mm 8 mps 758 mmHg 48%
    12:00 +26°C° 0.1 mm 9 mps 757 mmHg 51%
    13:00 +26°C° 0.1 mm 9 mps 756 mmHg 55%
    14:00 +26°C° 0.1 mm 9 mps 756 mmHg 59%
    15:00 +26°C° 0.2 mm 9 mps 755 mmHg 64%
    16:00 +24°C° 0.2 mm 8 mps 755 mmHg 69%
    17:00 +23°C° 0.2 mm 8 mps 754 mmHg 74%
    18:00 +22°C° 0.1 mm 8 mps 754 mmHg 77%
    19:00 +22°C° 0.1 mm 8 mps 754 mmHg 80%
    20:00 +22°C° 0.1 mm 8 mps 754 mmHg 83%
    21:00 +21°C° 0 mm 8 mps 754 mmHg 82%
    22:00 +21°C° 0 mm 8 mps 753 mmHg 82%
    23:00 +21°C° 0 mm 8 mps 753 mmHg 82%

    Day after tomorrow, 14 December, Friday

    Time Temperature Precipitation Wind Pressure Humidity
    00:00 +21°C° 1.1 mm 6 mps 753 mmHg 85%
    01:00 +21°C° 1.1 mm 5 mps 753 mmHg 88%
    02:00 +21°C° 1.1 mm 4 mps 753 mmHg 91%
    03:00 +21°C° 0.9 mm 4 mps 753 mmHg 92%
    04:00 +21°C° 0.9 mm 4 mps 753 mmHg 93%
    05:00 +20°C° 0.9 mm 4 mps 753 mmHg 94%
    06:00 +21°C° 0.2 mm 4 mps 753 mmHg 93%
    07:00 +22°C° 0.2 mm 5 mps 753 mmHg 92%
    08:00 +22°C° 0.2 mm 5 mps 753 mmHg 91%
    09:00 +25°C° 0.1 mm 5 mps 754 mmHg 87%
    10:00 +26°C° 0.1 mm 4 mps 754 mmHg 83%
    11:00 +27°C° 0.1 mm 3 mps 754 mmHg 79%
    12:00 +29°C° 0.1 mm 3 mps 754 mmHg 71%
    13:00 +30°C° 0.1 mm 3 mps 753 mmHg 63%
    14:00 +33°C° 0.1 mm 3 mps 753 mmHg 55%
    15:00 +32°C° 1.8 mm 4 mps 753 mmHg 61%
    16:00 +29°C° 1.8 mm 4 mps 754 mmHg 68%
    17:00 +28°C° 1.8 mm 5 mps 754 mmHg 74%
    18:00 +26°C° 0.4 mm 5 mps 755 mmHg 69%
    19:00 +25°C° 0.4 mm 5 mps 755 mmHg 64%
    20:00 +22°C° 0.4 mm 5 mps 756 mmHg 59%
    21:00 +21°C° 0 mm 5 mps 757 mmHg 57%
    22:00 +20°C° 0 mm 5 mps 757 mmHg 55%
    23:00 +19°C° 0 mm 4 mps 758 mmHg 53%

    15 December, Saturday

    Time Temperature Precipitation Wind Pressure Humidity
    00:00 +18°C° 0 mm 4 mps 758 mmHg 54%
    01:00 +17°C° 0 mm 4 mps 758 mmHg 55%
    02:00 +15°C° 0 mm 5 mps 758 mmHg 56%
    03:00 +15°C° 0 mm 4 mps 759 mmHg 57%
    04:00 +15°C° 0 mm 4 mps 759 mmHg 58%
    05:00 +14°C° 0 mm 3 mps 760 mmHg 58%
    06:00 +17°C° 0 mm 3 mps 760 mmHg 55%
    07:00 +20°C° 0 mm 3 mps 760 mmHg 51%
    08:00 +22°C° 0 mm 3 mps 761 mmHg 47%
    09:00 +25°C° 0 mm 3 mps 761 mmHg 42%
    10:00 +27°C° 0 mm 3 mps 760 mmHg 36%
    11:00 +29°C° 0 mm 3 mps 760 mmHg 31%
    12:00 +29°C° 0 mm 3 mps 760 mmHg 29%
    13:00 +30°C° 0 mm 2 mps 760 mmHg 27%
    14:00 +31°C° 0 mm 2 mps 759 mmHg 25%
    15:00 +31°C° 0 mm 2 mps 759 mmHg 28%
    16:00 +30°C° 0 mm 2 mps 759 mmHg 30%
    17:00 +30°C° 0 mm 2 mps 759 mmHg 32%
    18:00 +28°C° 0 mm 2 mps 759 mmHg 37%
    19:00 +25°C° 0 mm 2 mps 759 mmHg 41%
    20:00 +23°C° 0 mm 2 mps 759 mmHg 46%
    21:00 +23°C° 0 mm 2 mps 759 mmHg 48%
    22:00 +21°C° 0 mm 2 mps 759 mmHg 50%
    23:00 +21°C° 0 mm 3 mps 760 mmHg 52%

    16 December, Sunday

    Time Temperature Precipitation Wind Pressure Humidity
    00:00 +21°C° 0 mm 3 mps 759 mmHg 53%
    01:00 +20°C° 0 mm 4 mps 759 mmHg 53%
    02:00 +20°C° 0 mm 5 mps 759 mmHg 54%
    03:00 +20°C° 0 mm 5 mps 759 mmHg 54%
    04:00 +20°C° 0 mm 5 mps 759 mmHg 53%
    05:00 +20°C° 0 mm 6 mps 759 mmHg 52%
    06:00 +22°C° 0 mm 6 mps 759 mmHg 52%
    07:00 +25°C° 0 mm 5 mps 759 mmHg 51%
    08:00 +27°C° 0 mm 5 mps 759 mmHg 51%
    09:00 +28°C° 0 mm 5 mps 759 mmHg 45%
    10:00 +30°C° 0 mm 4 mps 758 mmHg 39%
    11:00 +33°C° 0 mm 4 mps 758 mmHg 33%
    12:00 +33°C° 0 mm 4 mps 757 mmHg 31%
    13:00 +34°C° 0 mm 3 mps 756 mmHg 29%
    14:00 +35°C° 0 mm 3 mps 756 mmHg 27%
    15:00 +35°C° 0 mm 3 mps 755 mmHg 29%
    16:00 +35°C° 0 mm 3 mps 755 mmHg 31%
    17:00 +34°C° 0 mm 3 mps 754 mmHg 33%
    18:00 +31°C° 0 mm 3 mps 754 mmHg 40%
    19:00 +29°C° 0 mm 3 mps 754 mmHg 47%
    20:00 +27°C° 0 mm 3 mps 754 mmHg 53%
    21:00 +27°C° 0 mm 3 mps 754 mmHg 58%
    22:00 +26°C° 0 mm 3 mps 754 mmHg 63%
    23:00 +26°C° 0 mm 4 mps 754 mmHg 68%

    17 December, Monday

    Time Temperature Precipitation Wind Pressure Humidity
    00:00 +25°C° 0 mm 3 mps 754 mmHg 72%
    01:00 +25°C° 0 mm 3 mps 754 mmHg 76%
    02:00 +24°C° 0 mm 3 mps 754 mmHg 79%
    03:00 +22°C° 0 mm 4 mps 755 mmHg 77%
    04:00 +20°C° 0 mm 5 mps 755 mmHg 75%
    05:00 +18°C° 0 mm 7 mps 756 mmHg 73%
    06:00 +20°C° 0.1 mm 7 mps 757 mmHg 66%
    07:00 +21°C° 0.1 mm 8 mps 758 mmHg 59%
    08:00 +22°C° 0.1 mm 9 mps 759 mmHg 53%
    09:00 +23°C° 0 mm 9 mps 759 mmHg 49%
    10:00 +26°C° 0 mm 9 mps 759 mmHg 45%
    11:00 +27°C° 0 mm 9 mps 759 mmHg 41%
    12:00 +27°C° 0 mm 9 mps 760 mmHg 38%
    13:00 +27°C° 0 mm 9 mps 760 mmHg 35%
    14:00 +27°C° 0 mm 9 mps 760 mmHg 32%
    15:00 +26°C° 0 mm 9 mps 761 mmHg 33%
    16:00 +24°C° 0 mm 9 mps 761 mmHg 33%
    17:00 +23°C° 0 mm 9 mps 761 mmHg 34%
    18:00 +21°C° 0 mm 9 mps 762 mmHg 39%
    19:00 +18°C° 0 mm 8 mps 763 mmHg 45%
    20:00 +16°C° 0 mm 8 mps 764 mmHg 51%
    21:00 +15°C° 0 mm 7 mps 764 mmHg 55%
    22:00 +15°C° 0 mm 7 mps 764 mmHg 59%
    23:00 +14°C° 0 mm 6 mps 764 mmHg 63%
    Show more